Regional Weather Roundup
Issued by NWS

Home | Current Version | Previous Version | Text Only | Print | Product List | Glossary Off
Versions: 1 2 3 4 5 6 7 8 9 10 11 12 13 14 15 16 17 18 19 20 21 22 23 24 25 26 27 28 29 30 31 32 33 34 35 36 37 38 39 40 41 42 43 44 45 46 47 48 49 50

000
ASUS43 KOAX 021410
RWRNE

WEATHER ROUNDUP FOR NEBRASKA
NATIONAL WEATHER SERVICE OMAHA NE
900 AM CDT SUN AUG 02 2015

NOTES: SATELLITE DATA IS BEING USED TO AUGMENT CLOUD COVER ABOVE
       12000 FEET.
       "FAIR" INDICATES FEW OR NO CLOUDS BELOW 12,000 FEET WITH NO
       SIGNIFICANT WEATHER AND/OR OBSTRUCTIONS TO VISIBILITY.

  * THESE STATIONS DO NOT REPORT WEATHER SUCH AS RAIN...SNOW OR FOG.

NEZ001>004-019>022-054>056-021500-
NEBRASKA PANHANDLE

CITY           SKY/WX    TMP DP  RH WIND       PRES   REMARKS
SCOTTSBLUFF    SUNNY     69  58  67 CALM      30.02R
CHADRON        SUNNY     73  58  59 E3        29.98R
KIMBALL        SUNNY     67  56  66 W3        30.06R
SIDNEY         MOSUNNY   71  56  58 W8        30.04R
$$

NEZ057>060-069>072-079>082-021500-
SOUTHWEST NEBRASKA

CITY           SKY/WX    TMP DP  RH WIND       PRES   REMARKS
NORTH PLATTE   SUNNY     68  61  78 CALM      29.96R
IMPERIAL       SUNNY     73  63  70 SW6       29.98S
LEXINGTON      SUNNY     75  67  76 SW6       29.93S
MCCOOK         SUNNY     75  65  70 VRB3      29.96R
OGALLALA       SUNNY     67  62  85 SW3       29.98S
$$

NEZ005>010-023>029-035>040-094-021500-
NORTH CENTRAL NEBRASKA

CITY           SKY/WX    TMP DP  RH WIND       PRES   REMARKS
AINSWORTH      SUNNY     74  61  63 SW9       29.89F
BROKEN BOW     SUNNY     74  63  68 CALM      29.93R
O`NEILL        SUNNY     74  63  66 SW6       29.86F
ORD            SUNNY     73  66  78 CALM      29.88R
THEDFORD       SUNNY     71  61  71 W5        29.95R
$$

NEZ041-046>049-061>064-073>077-083>087-021500-
SOUTH CENTRAL NEBRASKA

CITY           SKY/WX    TMP DP  RH WIND       PRES   REMARKS
GRAND ISLAND   SUNNY     79  67  66 SW12      29.91R
AURORA         SUNNY     75  70  85 SW12      29.90S
HASTINGS       SUNNY     75  68  78 SW9       29.92S
HEBRON         SUNNY     78  69  73 SW9G18    29.91S
HOLDREGE       SUNNY     76  66  71 SW9       29.93S
KEARNEY *      SUNNY     75  64  69 SW12      29.92S
YORK           SUNNY     75  70  83 SW13      29.89S
$$

NEZ011>018-030>034-042>045-021500-
NORTHEAST NEBRASKA

CITY           SKY/WX    TMP DP  RH WIND       PRES   REMARKS
NORFOLK        SUNNY     74  66  76 W5        29.86R
ALBION         SUNNY     73  64  74 NW6       29.87R
BLAIR          SUNNY     76  69  78 SW14G20   29.85S
COLUMBUS *     SUNNY     75  64  69 S6        29.86S
FREMONT        SUNNY     78  68  73 SW9       29.85S
TEKAMAH        SUNNY     78  70  76 SW10      29.82S
WAYNE          SUNNY     74  67  80 SW9       29.84R
$$

NEZ050>053-065>068-078-088>093-021500-
SOUTHEAST NEBRASKA

CITY           SKY/WX    TMP DP  RH WIND       PRES   REMARKS
LINCOLN        MOSUNNY   80  70  71 SW12      29.89S
OMAHA EPPLEY   MOSUNNY   78  71  79 S8        29.85S
BEATRICE       PTSUNNY   77  71  82 SW8       29.91R
FALLS CITY     MOSUNNY   80  73  79 SW12      29.88S
NEBRASKA CITY  LGT RAIN  75  73  93 SW3       29.89R
PLATTSMOUTH    MOSUNNY   75  72  91 S9        29.88R
$$

NEZ044-045-051>053-067-021500-
OMAHA AREA

CITY           SKY/WX    TMP DP  RH WIND       PRES   REMARKS
OMAHA EPPLEY   MOSUNNY   78  71  79 S8        29.85S
BLAIR          SUNNY     76  69  78 SW14G20   29.85S
FREMONT        SUNNY     78  68  73 SW9       29.85S
MILLARD        HAZE      79  71  76 SW7       29.86S VSB 1
OFFUTT AFB     MOSUNNY   76  71  83 SE5       29.86R
PLATTSMOUTH    MOSUNNY   75  72  91 S9        29.88R
WAHOO          FAIR      77  71  79 MISG      29.85F
$$


USA.gov is the U.S. government's official web portal to all federal, state and local government web resources and services.